When you browse on this site, cookies collect data to enhance your experience and personalize the content and advertising you see.
Visit our Privacy Policy to learn more. By continuing to use the site, you agree to this use of cookies and data.
  • In Hungary
  • List of Countries
  • For 7 days
  • Water Temperature
  • Weather Map
  • News
  • Weather Widgets
  • user-avatar
    Login

    Hourly Weather Bruntal

    Today, 29 February, Saturday

    Time Temperature Precipitation Wind Pressure Humidity
    00:00 -3°C° 0 mm 2 mps 712 mmHg 87%
    01:00 -3°C° 0 mm 2 mps 712 mmHg 86%
    02:00 -4°C° 0 mm 3 mps 711 mmHg 83%
    03:00 -4°C° 0 mm 3 mps 711 mmHg 80%
    04:00 -3°C° 0 mm 4 mps 710 mmHg 77%
    05:00 -4°C° 0 mm 5 mps 710 mmHg 77%
    06:00 -4°C° 0 mm 5 mps 709 mmHg 77%
    07:00 -4°C° 0 mm 6 mps 709 mmHg 76%
    08:00 -4°C° 0.1 mm 7 mps 708 mmHg 78%
    09:00 -4°C° 0.1 mm 7 mps 708 mmHg 80%
    10:00 -4°C° 0.1 mm 8 mps 707 mmHg 82%
    11:00 -4°C° 0.3 mm 8 mps 707 mmHg 80%
    12:00 -2°C° 0.3 mm 8 mps 706 mmHg 78%
    13:00 -1°C° 0.3 mm 8 mps 706 mmHg 76%
    14:00 -1°C° 0.1 mm 7 mps 705 mmHg 73%
    15:00 -1°C° 0.1 mm 7 mps 705 mmHg 71%
    16:00 -1°C° 0.1 mm 7 mps 704 mmHg 68%
    17:00 -1°C° 0 mm 7 mps 704 mmHg 71%
    18:00 -1°C° 0 mm 6 mps 704 mmHg 74%
    19:00 -1°C° 0 mm 6 mps 704 mmHg 76%
    20:00 -1°C° 0 mm 6 mps 704 mmHg 76%
    21:00 -1°C° 0 mm 6 mps 704 mmHg 76%
    22:00 0°C° 0 mm 5 mps 704 mmHg 75%
    23:00 0°C° 0 mm 5 mps 704 mmHg 77%

    Tomorrow, 1 March, Sunday

    Time Temperature Precipitation Wind Pressure Humidity
    00:00 0°C° 0 mm 5 mps 704 mmHg 78%
    01:00 0°C° 0 mm 5 mps 704 mmHg 79%
    02:00 0°C° 0.1 mm 5 mps 704 mmHg 82%
    03:00 0°C° 0.1 mm 4 mps 704 mmHg 84%
    04:00 0°C° 0.1 mm 3 mps 704 mmHg 86%
    05:00 0°C° 0.1 mm 3 mps 704 mmHg 88%
    06:00 0°C° 0.1 mm 3 mps 704 mmHg 89%
    07:00 0°C° 0.1 mm 3 mps 705 mmHg 90%
    08:00 +1°C° 0.1 mm 3 mps 705 mmHg 90%
    09:00 +1°C° 0.1 mm 3 mps 705 mmHg 89%
    10:00 +2°C° 0.1 mm 3 mps 705 mmHg 89%
    11:00 +2°C° 0 mm 3 mps 705 mmHg 88%
    12:00 +2°C° 0 mm 3 mps 705 mmHg 88%
    13:00 +1°C° 0 mm 4 mps 705 mmHg 87%
    14:00 +1°C° 0 mm 4 mps 705 mmHg 88%
    15:00 +1°C° 0 mm 4 mps 705 mmHg 88%
    16:00 +1°C° 0 mm 4 mps 704 mmHg 89%
    17:00 +1°C° 0 mm 4 mps 704 mmHg 90%
    18:00 +2°C° 0 mm 3 mps 704 mmHg 91%
    19:00 +1°C° 0 mm 3 mps 704 mmHg 93%
    20:00 +1°C° 0 mm 3 mps 703 mmHg 93%
    21:00 +2°C° 0 mm 2 mps 703 mmHg 93%
    22:00 +2°C° 0 mm 2 mps 702 mmHg 94%
    23:00 +2°C° 0 mm 2 mps 702 mmHg 94%

    Day after tomorrow, 2 March, Monday

    Time Temperature Precipitation Wind Pressure Humidity
    00:00 +3°C° 0 mm 1 mps 701 mmHg 94%
    01:00 +3°C° 0 mm 1 mps 701 mmHg 95%
    02:00 +3°C° 1 mm 1 mps 700 mmHg 95%
    03:00 +3°C° 1 mm 1 mps 699 mmHg 96%
    04:00 +3°C° 1 mm 1 mps 699 mmHg 97%
    05:00 +3°C° 1.8 mm 1 mps 699 mmHg 97%
    06:00 +3°C° 1.8 mm 1 mps 699 mmHg 96%
    07:00 +3°C° 1.8 mm 1 mps 699 mmHg 96%
    08:00 +3°C° 0 mm 2 mps 699 mmHg 91%
    09:00 +2°C° 0 mm 3 mps 699 mmHg 86%
    10:00 +3°C° 0 mm 3 mps 700 mmHg 80%
    11:00 +4°C° 0 mm 4 mps 700 mmHg 75%
    12:00 +5°C° 0 mm 4 mps 700 mmHg 69%
    13:00 +5°C° 0 mm 4 mps 700 mmHg 63%
    14:00 +5°C° 0 mm 4 mps 700 mmHg 65%
    15:00 +5°C° 0 mm 4 mps 699 mmHg 66%
    16:00 +5°C° 0 mm 4 mps 699 mmHg 67%
    17:00 +4°C° 0 mm 4 mps 699 mmHg 70%
    18:00 +3°C° 0 mm 3 mps 699 mmHg 73%
    19:00 +4°C° 0 mm 2 mps 698 mmHg 76%
    20:00 +4°C° 0 mm 2 mps 698 mmHg 79%
    21:00 +4°C° 0 mm 2 mps 698 mmHg 81%
    22:00 +4°C° 0 mm 2 mps 698 mmHg 84%
    23:00 +4°C° 0.4 mm 3 mps 698 mmHg 87%

    3 March, Tuesday

    Time Temperature Precipitation Wind Pressure Humidity
    00:00 +4°C° 0.4 mm 3 mps 698 mmHg 89%
    01:00 +4°C° 0.4 mm 3 mps 698 mmHg 92%
    02:00 +4°C° 1.3 mm 3 mps 697 mmHg 93%
    03:00 +4°C° 1.3 mm 3 mps 697 mmHg 94%
    04:00 +4°C° 1.3 mm 3 mps 697 mmHg 95%
    05:00 +4°C° 2 mm 3 mps 697 mmHg 95%
    06:00 +4°C° 2 mm 2 mps 697 mmHg 96%
    07:00 +4°C° 2 mm 2 mps 697 mmHg 97%
    08:00 +3°C° 1.3 mm 2 mps 698 mmHg 96%
    09:00 +1°C° 1.3 mm 3 mps 698 mmHg 96%
    10:00 +1°C° 1.3 mm 3 mps 698 mmHg 95%
    11:00 0°C° 0.7 mm 3 mps 699 mmHg 96%
    12:00 -1°C° 0.7 mm 4 mps 699 mmHg 96%
    13:00 -1°C° 0.7 mm 4 mps 699 mmHg 96%
    14:00 -1°C° 2 mm 4 mps 699 mmHg 97%
    15:00 0°C° 2 mm 3 mps 700 mmHg 97%
    16:00 -1°C° 2 mm 3 mps 700 mmHg 98%
    17:00 -1°C° 1.1 mm 3 mps 700 mmHg 98%
    18:00 -1°C° 1.1 mm 3 mps 701 mmHg 97%
    19:00 -1°C° 1.1 mm 2 mps 702 mmHg 97%
    20:00 -1°C° 0.1 mm 2 mps 702 mmHg 96%
    21:00 -1°C° 0.1 mm 2 mps 702 mmHg 95%
    22:00 +1°C° 0.1 mm 1 mps 703 mmHg 93%
    23:00 +1°C° 0 mm 1 mps 703 mmHg 91%

    4 March, Wednesday

    Time Temperature Precipitation Wind Pressure Humidity
    00:00 0°C° 0 mm 1 mps 703 mmHg 89%
    01:00 0°C° 0 mm 1 mps 703 mmHg 87%
    02:00 -2°C° 0 mm 2 mps 703 mmHg 87%
    03:00 -3°C° 0 mm 2 mps 703 mmHg 86%
    04:00 -3°C° 0 mm 2 mps 703 mmHg 85%
    05:00 -3°C° 0 mm 2 mps 704 mmHg 85%
    06:00 -3°C° 0 mm 2 mps 704 mmHg 86%
    07:00 -3°C° 0 mm 2 mps 704 mmHg 86%
    08:00 -2°C° 0 mm 2 mps 704 mmHg 83%
    09:00 -1°C° 0 mm 3 mps 705 mmHg 80%
    10:00 +1°C° 0 mm 3 mps 705 mmHg 78%
    11:00 +1°C° 0 mm 3 mps 705 mmHg 74%
    12:00 +2°C° 0 mm 3 mps 705 mmHg 71%
    13:00 +1°C° 0 mm 4 mps 705 mmHg 68%
    14:00 +2°C° 0.1 mm 3 mps 705 mmHg 70%
    15:00 +2°C° 0.1 mm 3 mps 705 mmHg 72%
    16:00 +2°C° 0.1 mm 3 mps 705 mmHg 73%
    17:00 +2°C° 0 mm 2 mps 706 mmHg 78%
    18:00 +1°C° 0 mm 2 mps 706 mmHg 82%
    19:00 +1°C° 0 mm 1 mps 706 mmHg 86%
    20:00 0°C° 0 mm 1 mps 706 mmHg 87%
    21:00 0°C° 0 mm 1 mps 707 mmHg 88%
    22:00 0°C° 0 mm 1 mps 707 mmHg 88%
    23:00 0°C° 0 mm 1 mps 707 mmHg 89%

    5 March, Thursday

    Time Temperature Precipitation Wind Pressure Humidity
    00:00 -3°C° 0 mm 2 mps 707 mmHg 90%
    01:00 -3°C° 0 mm 2 mps 707 mmHg 90%
    02:00 -3°C° 0 mm 2 mps 707 mmHg 91%
    03:00 -3°C° 0 mm 2 mps 707 mmHg 91%
    04:00 -3°C° 0 mm 2 mps 707 mmHg 91%
    05:00 -2°C° 0 mm 2 mps 707 mmHg 91%
    06:00 -2°C° 0 mm 2 mps 706 mmHg 91%
    07:00 -2°C° 0 mm 2 mps 706 mmHg 91%
    08:00 -1°C° 0 mm 2 mps 706 mmHg 87%
    09:00 0°C° 0 mm 3 mps 706 mmHg 83%
    10:00 +1°C° 0 mm 3 mps 706 mmHg 79%
    11:00 +1°C° 0 mm 3 mps 705 mmHg 75%
    12:00 +1°C° 0 mm 4 mps 705 mmHg 71%
    13:00 +3°C° 0 mm 4 mps 704 mmHg 67%
    14:00 +1°C° 0 mm 4 mps 704 mmHg 68%
    15:00 +1°C° 0 mm 5 mps 703 mmHg 70%
    16:00 +1°C° 0 mm 5 mps 702 mmHg 72%
    17:00 +1°C° 0 mm 4 mps 702 mmHg 76%
    18:00 +1°C° 0 mm 3 mps 701 mmHg 80%
    19:00 0°C° 0 mm 3 mps 700 mmHg 84%
    20:00 0°C° 0 mm 3 mps 700 mmHg 83%
    21:00 +1°C° 0 mm 3 mps 700 mmHg 81%
    22:00 0°C° 0 mm 4 mps 699 mmHg 80%
    23:00 0°C° 0 mm 4 mps 699 mmHg 80%
    Show more